Location: Ch?enovice
(49.7164°N, 15.2160°E)
Time: 19:43:18
(UTC+00:00)

Meteor 1-28 Rocket - Pass Details

Date: 23 May 2024
Orbit: 474 x 489 km, 97.5° (Epoch: 20 June)

Event Time Altitude Azimuth Distance (km) Brightness Sun altitude
Exits shadow 02:01:08 - 192° (SSW) 1,820 5.5 -8.6°
Reaches altitude 10° 02:01:32 10° 194° (SSW) 1,657 5.2 -8.5°
Maximum altitude 02:04:51 36° 262° (W) 783 3.7 -8.2°
Drops below altitude 10° 02:08:10 10° 331° (NNW) 1,663 6.0 -7.8°
Sets 02:10:21 0° 340° (NNW) 2,545 7.1 -7.5°
